EW0013 Weather Reports


Display with metric or nautical units.
time (UTC)temp
F
wind
direction
speed
MPH
gust
MPH
rain 1hr
in
rain 24hr
in
rain mn
in
humidity
%
barometer
mb
20230206060526 27 282 1.0 3.0 0.00 0.00 0.00 82 1005.9
20230206060029 27 282 0.0 1.0 0.00 0.00 0.00 82 1005.9
20230206055525 27 282 0.0 2.0 0.00 0.00 0.00 82 1006.0
20230206055035 27 282 0.0 2.0 0.00 0.00 0.00 82 1005.8
20230206054523 27 282 1.0 3.0 0.00 0.00 0.00 82 1005.9
20230206054017 27 282 0.0 4.0 0.00 0.00 0.00 82 1005.9
20230206053527 27 282 0.0 4.0 0.00 0.00 0.00 82 1005.9
20230206053032 27 131 0.0 1.0 0.00 0.00 0.00 82 1005.9
20230206052525 27 131 0.0 1.0 0.00 0.00 0.00 82 1006.0
20230206052022 27 131 0.0 2.0 0.00 0.00 0.00 83 1006.0
20230206051542 27 131 0.0 2.0 0.00 0.00 0.00 83 1006.3
20230206051032 27 131 0.0 2.0 0.00 0.00 0.00 83 1006.1
20230206050521 27 131 0.0 2.0 0.00 0.00 0.00 83 1006.2
20230206050017 27 138 0.0 5.0 0.00 0.00 0.00 83 1006.3
20230206045542 27 286 1.0 5.0 0.00 0.00 0.00 82 1006.2
20230206045034 27 171 1.0 5.0 0.00 0.00 0.00 82 1006.4
20230206044531 27 300 0.0 0.0 0.00 0.00 0.00 82 1006.6
20230206044038 27 300 0.0 2.0 0.00 0.00 0.00 82 1006.7
20230206043522 28 300 0.0 2.0 0.00 0.00 0.00 82 1006.7
20230206043030 28 300 0.0 1.0 0.00 0.00 0.00 82 1006.7
20230206042542 28 300 0.0 2.0 0.00 0.00 0.00 81 1006.9
20230206042019 28 300 0.0 2.0 0.00 0.00 0.00 81 1007.0
20230206041538 28 300 0.0 3.0 0.00 0.00 0.00 81 1007.1
20230206041051 28 300 0.0 3.0 0.00 0.00 0.00 80 1007.0
20230206040537 28 300 0.0 1.0 0.00 0.00 0.00 80 1007.0
20230206040021 28 300 0.0 1.0 0.00 0.00 0.00 79 1007.1
20230206035543 28 300 0.0 2.0 0.00 0.00 0.00 79 1007.1
20230206035030 29 300 0.0 2.0 0.00 0.00 0.00 79 1007.1
20230206034528 29 300 0.0 0.0 0.00 0.00 0.00 78 1007.1
20230206034033 29 300 0.0 0.0 0.00 0.00 0.00 77 1007.2
20230206033529 29 300 0.0 0.0 0.00 0.00 0.00 77 1007.2
20230206033051 30 300 0.0 0.0 0.00 0.00 0.00 77 1007.4
20230206032526 30 300 0.0 0.0 0.00 0.00 0.00 76 1007.3
20230206032054 30 300 0.0 0.0 0.00 0.00 0.00 76 1007.5
20230206031521 30 300 0.0 0.0 0.00 0.00 0.00 75 1007.4
20230206031052 31 300 0.0 0.0 0.00 0.00 0.00 74 1007.5
20230206030555 31 300 0.0 0.0 0.00 0.00 0.00 74 1007.5
20230206030100 31 300 0.0 0.0 0.00 0.00 0.00 73 1007.7
20230206025536 31 300 0.0 0.0 0.00 0.00 0.00 72 1007.7
20230206025024 32 300 0.0 0.0 0.00 0.00 0.00 71 1007.7
20230206024520 32 300 0.0 0.0 0.00 0.00 0.00 70 1007.7
20230206024046 32 300 0.0 0.0 0.00 0.00 0.00 70 1007.7
20230206023530 32 300 0.0 0.0 0.00 0.00 0.00 69 1007.9
20230206023018 32 300 0.0 0.0 0.00 0.00 0.00 69 1008.1
20230206022552 33 300 0.0 0.0 0.00 0.00 0.00 69 1008.2
20230206022035 33 300 0.0 0.0 0.00 0.00 0.00 69 1008.0
20230206021533 33 300 0.0 2.0 0.00 0.00 0.00 68 1008.4
20230206021040 33 300 0.0 2.0 0.00 0.00 0.00 67 1008.0
20230206020528 34 138 0.0 0.0 0.00 0.00 0.00 66 1008.4
20230206020025 34 138 0.0 0.0 0.00 0.00 0.00 65 1008.1
20230206015526 34 138 0.0 0.0 0.00 0.00 0.00 65 1008.2
20230206015031 35 138 0.0 0.0 0.00 0.00 0.00 64 1008.4
20230206014520 35 138 0.0 0.0 0.00 0.00 0.00 64 1008.2
20230206014028 35 138 0.0 0.0 0.00 0.00 0.00 64 1008.3
20230206013552 35 138 0.0 0.0 0.00 0.00 0.00 63 1008.3
20230206013038 35 138 0.0 0.0 0.00 0.00 0.00 63 1008.1
20230206012520 36 138 0.0 0.0 0.00 0.00 0.00 63 1008.1
20230206012033 36 138 0.0 2.0 0.00 0.00 0.00 63 1007.8
20230206011520 36 159 0.0 2.0 0.00 0.00 0.00 62 1008.4
20230206011029 37 117 1.0 3.0 0.00 0.00 0.00 60 1007.5
20230206010520 37 134 0.0 3.0 0.00 0.00 0.00 59 1008.2
20230206010048 37 296 0.0 2.0 0.00 0.00 0.00 58 1007.9
20230206005549 38 67 0.0 2.0 0.00 0.00 0.00 57 1007.6
20230206005031 38 18 0.0 3.0 0.00 0.00 0.00 53 1007.9
20230206004535 39 328 0.0 2.0 0.00 0.00 0.00 52 1008.0
20230206004019 39 328 0.0 2.0 0.00 0.00 0.00 52 1007.9
20230206003530 39 328 0.0 2.0 0.00 0.00 0.00 52 1007.7
20230206003015 40 328 0.0 0.0 0.00 0.00 0.00 51 1007.8
20230206002522 40 328 0.0 1.0 0.00 0.00 0.00 51 1007.6
20230206002030 40 328 0.0 1.0 0.00 0.00 0.00 51 1007.9
20230206001528 41 328 0.0 0.0 0.00 0.00 0.00 50 1007.6
20230206001017 41 328 0.0 0.0 0.00 0.00 0.00 49 1007.7
20230206000530 42 328 0.0 0.0 0.00 0.00 0.00 49 1007.6
20230206000036 42 328 0.0 0.0 0.00 0.00 0.00 48 1007.8
20230205235519 42 328 0.0 0.0 0.00 0.00 0.00 47 1007.9
20230205235018 42 328 0.0 0.0 0.00 0.00 0.00 47 1007.9
20230205234525 42 328 0.0 0.0 0.00 0.00 0.00 47 1007.9
20230205234051 43 328 0.0 0.0 0.00 0.00 0.00 46 1007.8
20230205233517 43 328 0.0 0.0 0.00 0.00 0.00 45 1007.9
20230205233028 43 328 0.0 0.0 0.00 0.00 0.00 45 1008.0
20230205232546 44 328 0.0 0.0 0.00 0.00 0.00 44 1008.1
20230205232028 44 328 0.0 2.0 0.00 0.00 0.00 45 1008.1
20230205231516 44 328 0.0 2.0 0.00 0.00 0.00 44 1008.1
20230205231035 45 328 0.0 2.0 0.00 0.00 0.00 44 1008.3
20230205230525 45 329 0.0 3.0 0.00 0.00 0.00 44 1008.1
20230205230030 45 329 1.0 3.0 0.00 0.00 0.00 44 1008.4
20230205225544 46 350 0.0 2.0 0.00 0.00 0.00 45 1008.3
20230205225019 46 13 0.0 2.0 0.00 0.00 0.00 44 1008.4
20230205224517 47 46 0.0 2.0 0.00 0.00 0.00 44 1008.4
20230205224030 47 311 0.0 4.0 0.00 0.00 0.00 43 1008.6
20230205223541 47 311 1.0 6.0 0.00 0.00 0.00 42 1008.6
20230205223042 48 346 1.0 6.0 0.00 0.00 0.00 41 1008.7
20230205222525 48 94 0.0 2.0 0.00 0.00 0.00 40 1008.6
20230205222020 48 322 0.0 2.0 0.00 0.00 0.00 39 1008.9
20230205221604 48 322 0.0 2.0 0.00 0.00 0.00 39 1008.9
20230205221025 48 315 0.0 2.0 0.00 0.00 0.00 39 1008.9
20230205220530 48 313 0.0 2.0 0.00 0.00 0.00 39 1009.2
20230205220020 48 313 0.0 2.0 0.00 0.00 0.00 39 1009.1
20230205215526 48 311 0.0 2.0 0.00 0.00 0.00 39 1009.1
20230205215033 49 309 0.0 2.0 0.00 0.00 0.00 40 1009.1
20230205214527 49 312 0.0 2.0 0.00 0.00 0.00 39 1009.3
20230205214027 49 9 0.0 1.0 0.00 0.00 0.00 38 1009.7
20230205213523 49 325 0.0 1.0 0.00 0.00 0.00 38 1009.6
20230205213033 49 325 0.0 1.0 0.00 0.00 0.00 38 1009.7
20230205212534 48 325 0.0 3.0 0.00 0.00 0.00 38 1009.6
20230205212043 49 325 1.0 3.0 0.00 0.00 0.00 38 1009.9
20230205211525 49 325 0.0 2.0 0.00 0.00 0.00 39 1009.9
20230205211019 49 326 0.0 2.0 0.00 0.00 0.00 40 1009.9
20230205210525 49 329 0.0 2.0 0.00 0.00 0.00 40 1010.0
20230205210014 49 330 0.0 3.0 0.00 0.00 0.00 39 1010.3
20230205205528 49 53 0.0 3.0 0.00 0.00 0.00 40 1010.3
20230205205018 49 22 0.0 2.0 0.00 0.00 0.00 40 1010.4
20230205204529 49 22 0.0 3.0 0.00 0.00 0.00 40 1010.5
20230205204023 49 332 0.0 3.0 0.00 0.00 0.00 41 1010.6
20230205203530 49 66 0.0 2.0 0.00 0.00 0.00 39 1010.7
20230205203021 49 53 0.0 2.0 0.00 0.00 0.00 39 1010.8
20230205202543 49 328 0.0 4.0 0.00 0.00 0.00 40 1011.0
20230205202025 49 327 0.0 4.0 0.00 0.00 0.00 39 1011.1
20230205201520 49 95 0.0 2.0 0.00 0.00 0.00 38 1011.2
20230205201033 49 331 0.0 3.0 0.00 0.00 0.00 38 1011.5
20230205200521 50 336 1.0 3.0 0.00 0.00 0.00 38 1011.5
20230205200105 50 328 0.0 3.0 0.00 0.00 0.00 38 1011.8
20230205195525 50 86 0.0 2.0 0.00 0.00 0.00 40 1011.8
20230205195034 50 17 0.0 1.0 0.00 0.00 0.00 40 1012.0
20230205194521 49 13 0.0 2.0 0.00 0.00 0.00 39 1011.9
20230205194015 49 49 0.0 2.0 0.00 0.00 0.00 40 1012.3
20230205193600 49 347 0.0 2.0 0.00 0.00 0.00 40 1012.3
20230205193046 49 85 0.0 3.0 0.00 0.00 0.00 39 1012.4
20230205192530 48 318 0.0 3.0 0.00 0.00 0.00 39 1012.6
20230205192041 48 318 0.0 3.0 0.00 0.00 0.00 40 1012.8
20230205191551 48 317 1.0 3.0 0.00 0.00 0.00 40 1013.0
20230205191019 48 313 0.0 3.0 0.00 0.00 0.00 41 1013.2
20230205190547 47 351 1.0 3.0 0.00 0.00 0.00 40 1013.4
20230205190018 47 351 0.0 1.0 0.00 0.00 0.00 41 1013.5
20230205185520 47 355 0.0 1.0 0.00 0.00 0.00 41 1013.7
20230205185032 47 355 0.0 1.0 0.00 0.00 0.00 42 1013.8
20230205184541 47 27 0.0 1.0 0.00 0.00 0.00 41 1014.0
20230205184023 47 26 0.0 1.0 0.00 0.00 0.00 41 1014.2
20230205183527 47 60 0.0 1.0 0.00 0.00 0.00 41 1014.1
20230205183038 47 61 0.0 2.0 0.00 0.00 0.00 42 1014.4
20230205182520 46 61 0.0 2.0 0.00 0.00 0.00 41 1014.3
20230205182038 46 67 0.0 2.0 0.00 0.00 0.00 41 1014.7
20230205181542 46 83 1.0 2.0 0.00 0.00 0.00 44 1014.7
20230205181025 45 360 0.0 2.0 0.00 0.00 0.00 45 1014.9
20230205180544 45 38 1.0 2.0 0.00 0.00 0.00 45 1015.1
20230205180047 44 303 0.0 3.0 0.00 0.00 0.00 46 1015.2
20230205175539 43 303 1.0 3.0 0.00 0.00 0.00 48 1015.1
20230205175024 43 319 0.0 2.0 0.00 0.00 0.00 49 1015.3
20230205174525 42 319 0.0 6.0 0.00 0.00 0.00 49 1015.4
20230205174023 42 317 1.0 6.0 0.00 0.00 0.00 49 1015.6
20230205173517 41 338 0.0 3.0 0.00 0.00 0.00 50 1015.5
20230205173027 41 337 0.0 3.0 0.00 0.00 0.00 51 1015.4
20230205172535 40 355 1.0 2.0 0.00 0.00 0.00 52 1015.6
20230205172030 40 342 0.0 1.0 0.00 0.00 0.00 54 1015.5
20230205171547 39 342 0.0 2.0 0.00 0.00 0.00 55 1015.5
20230205171026 39 342 0.0 2.0 0.00 0.00 0.00 56 1015.6
20230205170539 38 294 0.0 1.0 0.00 0.00 0.00 57 1015.6
20230205170030 38 294 0.0 1.0 0.00 0.00 0.00 58 1015.7
20230205165518 37 294 0.0 1.0 0.00 0.00 0.00 59 1015.8
20230205165031 37 294 0.0 1.0 0.00 0.00 0.00 60 1015.6
20230205164534 36 294 0.0 2.0 0.00 0.00 0.00 62 1016.0
20230205164019 36 294 0.0 2.0 0.00 0.00 0.00 64 1016.0
20230205163527 35 294 1.0 2.0 0.00 0.00 0.00 67 1016.0
20230205163103 34 294 0.0 0.0 0.00 0.00 0.00 69 1016.1
20230205162528 34 294 0.0 1.0 0.00 0.00 0.00 72 1016.2
20230205162053 33 294 0.0 1.0 0.00 0.00 0.00 73 1016.2
20230205161519 33 294 0.0 4.0 0.00 0.00 0.00 75 1016.3
20230205161031 32 294 1.0 4.0 0.00 0.00 0.00 76 1016.3
20230205160537 31 307 0.0 0.0 0.00 0.00 0.00 77 1016.2
20230205160019 31 307 0.0 0.0 0.00 0.00 0.00 77 1016.2
20230205155520 30 307 0.0 0.0 0.00 0.00 0.00 78 1016.4
20230205155032 30 307 0.0 0.0 0.00 0.00 0.00 79 1016.3
20230205154520 29 307 0.0 0.0 0.00 0.00 0.00 80 1016.6
20230205154027 29 307 0.0 0.0 0.00 0.00 0.00 80 1016.6
20230205153534 28 307 0.0 0.0 0.00 0.00 0.00 81 1016.4
20230205153025 28 308 0.0 0.0 0.00 0.00 0.00 81 1016.4
20230205152532 28 307 0.0 0.0 0.00 0.00 0.00 81 1016.5
20230205152022 27 307 0.0 0.0 0.00 0.00 0.00 81 1016.4
20230205151529 27 307 0.0 0.0 0.00 0.00 0.00 81 1016.6
20230205151034 27 307 0.0 0.0 0.00 0.00 0.00 81 1016.4
20230205150530 27 307 0.0 0.0 0.00 0.00 0.00 80 1016.6
20230205150047 26 307 0.0 0.0 0.00 0.00 0.00 80 1016.8
20230205145538 26 307 0.0 1.0 0.00 0.00 0.00 80 1016.6
20230205145035 26 307 0.0 1.0 0.00 0.00 0.00 80 1016.6
20230205144519 26 307 0.0 0.0 0.00 0.00 0.00 79 1016.3
20230205144027 26 307 0.0 0.0 0.00 0.00 0.00 79 1016.4
20230205143542 26 307 0.0 0.0 0.00 0.00 0.00 79 1016.4
20230205143012 26 307 0.0 0.0 0.00 0.00 0.00 78 1016.5
20230205142524 26 307 0.0 0.0 0.00 0.00 0.00 78 1016.4
20230205142034 26 308 0.0 2.0 0.00 0.00 0.00 78 1016.2
20230205141528 27 307 0.0 2.0 0.00 0.00 0.00 78 1016.4
20230205141037 27 307 0.0 0.0 0.00 0.00 0.00 77 1016.3
20230205140552 27 307 0.0 0.0 0.00 0.00 0.00 77 1016.3
20230205140016 27 307 0.0 0.0 0.00 0.00 0.00 77 1016.4
20230205135529 27 307 0.0 0.0 0.00 0.00 0.00 76 1016.4
20230205135017 27 307 0.0 0.0 0.00 0.00 0.00 76 1016.4
20230205134530 27 307 0.0 3.0 0.00 0.00 0.00 76 1016.4
20230205134018 27 307 0.0 3.0 0.00 0.00 0.00 76 1016.4
20230205133527 27 307 0.0 2.0 0.00 0.00 0.00 75 1016.3
20230205133018 28 308 0.0 2.0 0.00 0.00 0.00 74 1016.2
20230205132600 28 308 0.0 1.0 0.00 0.00 0.00 73 1016.6
20230205132044 28 308 0.0 0.0 0.00 0.00 0.00 73 1016.3
20230205131531 28 307 0.0 1.0 0.00 0.00 0.00 73 1016.3
20230205131030 28 307 0.0 1.0 0.00 0.00 0.00 72 1016.4
20230205130519 28 308 0.0 0.0 0.00 0.00 0.00 72 1016.6
20230205130043 28 307 0.0 0.0 0.00 0.00 0.00 72 1016.4
20230205125531 29 307 0.0 0.0 0.00 0.00 0.00 71 1016.4
20230205125030 29 308 0.0 1.0 0.00 0.00 0.00 71 1016.5
20230205124528 29 308 0.0 1.0 0.00 0.00 0.00 71 1016.4
20230205124017 29 307 0.0 0.0 0.00 0.00 0.00 70 1016.5
20230205123544 29 307 0.0 0.0 0.00 0.00 0.00 70 1016.3
20230205123019 29 307 0.0 0.0 0.00 0.00 0.00 70 1016.5
20230205122531 29 307 0.0 1.0 0.00 0.00 0.00 70 1016.6
20230205122027 29 307 0.0 1.0 0.00 0.00 0.00 69 1016.5
20230205121543 30 308 0.0 0.0 0.00 0.00 0.00 69 1016.5
20230205121017 30 307 0.0 0.0 0.00 0.00 0.00 68 1016.6
20230205120524 30 308 0.0 0.0 0.00 0.00 0.00 68 1016.6
20230205120049 31 307 0.0 0.0 0.00 0.00 0.00 67 1016.6
20230205115530 31 307 0.0 3.0 0.00 0.00 0.00 66 1016.6
20230205115014 31 307 0.0 3.0 0.00 0.00 0.00 65 1016.8
20230205114558 32 307 0.0 3.0 0.00 0.00 0.00 63 1016.7
20230205114022 32 308 0.0 1.0 0.00 0.00 0.00 64 1016.6
20230205113534 32 308 0.0 1.0 0.00 0.00 0.00 63 1016.6
20230205113021 33 308 0.0 1.0 0.00 0.00 0.00 63 1016.6
20230205112542 33 307 0.0 1.0 0.00 0.00 0.00 62 1016.6
20230205112109 33 308 0.0 1.0 0.00 0.00 0.00 62 1016.6
20230205111537 33 307 0.0 2.0 0.00 0.00 0.00 62 1016.8
20230205111045 33 307 0.0 2.0 0.00 0.00 0.00 61 1016.8
20230205110529 33 5 0.0 1.0 0.00 0.00 0.00 61 1016.5
20230205110016 33 5 0.0 1.0 0.00 0.00 0.00 60 1016.6
20230205105546 33 5 0.0 1.0 0.00 0.00 0.00 59 1016.5
20230205105018 33 5 0.0 1.0 0.00 0.00 0.00 59 1016.7
20230205104520 33 5 0.0 1.0 0.00 0.00 0.00 59 1016.7
20230205104024 33 5 0.0 1.0 0.00 0.00 0.00 59 1016.7
20230205103534 34 5 0.0 1.0 0.00 0.00 0.00 59 1016.7
20230205103059 34 5 0.0 1.0 0.00 0.00 0.00 59 1016.6
20230205102521 34 33 0.0 0.0 0.00 0.00 0.00 58 1016.7
20230205102040 34 33 0.0 1.0 0.00 0.00 0.00 58 1016.8
20230205101531 34 33 0.0 1.0 0.00 0.00 0.00 58 1016.7
20230205101032 34 33 0.0 1.0 0.00 0.00 0.00 58 1016.5
20230205100536 35 33 0.0 1.0 0.00 0.00 0.00 57 1016.8
20230205100020 35 33 0.0 2.0 0.00 0.00 0.00 57 1016.6
20230205095525 35 33 0.0 2.0 0.00 0.00 0.00 57 1016.7
20230205095042 35 37 0.0 1.0 0.00 0.00 0.00 57 1016.6
20230205094537 35 37 0.0 0.0 0.00 0.00 0.00 56 1016.7
20230205094019 35 37 0.0 1.0 0.00 0.00 0.00 57 1016.7
20230205093529 35 37 0.0 1.0 0.00 0.00 0.00 55 1016.6
20230205093052 35 37 0.0 3.0 0.00 0.00 0.00 55 1016.7
20230205092535 36 37 0.0 3.0 0.00 0.00 0.00 55 1016.5
20230205092046 36 339 0.0 0.0 0.00 0.00 0.00 55 1016.6
20230205091537 36 339 0.0 3.0 0.00 0.00 0.00 55 1016.8
20230205091043 36 338 0.0 5.0 0.00 0.00 0.00 55 1016.9
20230205090531 36 343 2.0 5.0 0.00 0.00 0.00 55 1016.9
20230205090022 36 96 0.0 2.0 0.00 0.00 0.00 55 1016.8
20230205085545 36 94 0.0 1.0 0.00 0.00 0.00 55 1017.1
20230205085050 36 94 0.0 6.0 0.00 0.00 0.00 55 1017.1
20230205084518 37 99 1.0 6.0 0.00 0.00 0.00 54 1017.1
20230205084042 37 87 1.0 5.0 0.00 0.00 0.00 54 1017.0
20230205083521 37 323 0.0 4.0 0.00 0.00 0.00 53 1016.5
20230205083042 38 325 0.0 4.0 0.00 0.00 0.00 52 1016.6
20230205082526 38 290 1.0 4.0 0.00 0.00 0.00 51 1016.4
20230205082033 38 131 0.0 1.0 0.00 0.00 0.00 50 1016.7
20230205081546 38 270 0.0 0.0 0.00 0.00 0.00 49 1016.6
20230205081031 39 270 0.0 0.0 0.00 0.00 0.00 48 1016.7
20230205080537 39 270 0.0 0.0 0.00 0.00 0.00 48 1016.7
20230205080044 39 270 0.0 1.0 0.00 0.00 0.00 47 1016.6
20230205075538 39 271 0.0 4.0 0.00 0.00 0.00 47 1016.6
20230205075018 39 271 1.0 4.0 0.00 0.00 0.00 48 1016.6
20230205074544 39 237 0.0 0.0 0.00 0.00 0.00 46 1016.5
20230205074028 40 237 0.0 0.0 0.00 0.00 0.00 44 1016.6
20230205073518 40 237 0.0 0.0 0.00 0.00 0.00 43 1016.6
20230205073026 40 237 0.0 5.0 0.00 0.00 0.00 43 1016.5
20230205072534 40 275 0.0 5.0 0.00 0.00 0.00 47 1016.6
20230205072045 40 86 3.0 5.0 0.00 0.00 0.00 44 1016.6
20230205071603 40 126 0.0 0.0 0.00 0.00 0.00 45 1016.8
20230205071021 40 106 0.0 0.0 0.00 0.00 0.00 43 1016.6
20230205070549 40 107 0.0 0.0 0.00 0.00 0.00 43 1016.7
20230205070043 41 107 0.0 0.0 0.00 0.00 0.00 43 1016.8
20230205065527 41 107 0.0 0.0 0.00 0.00 0.00 41 1017.0
20230205065019 41 107 0.0 0.0 0.00 0.00 0.00 41 1016.9
20230205064526 41 107 0.0 0.0 0.00 0.00 0.00 42 1017.2
20230205064036 42 105 0.0 0.0 0.00 0.00 0.00 38 1017.0
20230205063527 42 105 0.0 3.0 0.00 0.00 0.00 37 1016.9
20230205063038 41 103 1.0 3.0 0.00 0.00 0.00 37 1017.0
20230205062524 41 101 0.0 3.0 0.00 0.00 0.00 38 1017.0
20230205062036 41 86 0.0 2.0 0.00 0.00 0.00 40 1017.0
20230205061516 41 86 0.0 1.0 0.00 0.00 0.00 39 1017.1
20230205061025 42 86 0.0 1.0 0.00 0.00 0.00 40 1017.2